Regional Weather Roundup
Issued by NWS

Home | Current Version | Previous Version | Graphics & Text | Print | Product List | Glossary On
Versions: 1 2 3 4 5 6 7 8 9 10 11 12 13 14 15 16 17 18 19 20 21 22 23 24 25 26 27 28 29 30 31 32 33 34 35 36 37 38 39 40 41 42 43 44 45 46 47 48 49 50
000
ASUS43 KLSX 261107
RWRMO

WEATHER SUMMARY FOR MISSOURI
NATIONAL WEATHER SERVICE SPRINGFIELD MO
500 AM CST FRI DEC 26 2014

NOTE: "FAIR" INDICATES FEW OR NO CLOUDS BELOW 12,000 FEET WITH NO
       SIGNIFICANT WEATHER AND/OR OBSTRUCTIONS TO VISIBILITY.
       CURRENT SKY AND/OR WEATHER CONDITIONS ARE NOT AVAILABLE FOR
       CHILLICOTHE AND FARMINGTON.

MOZ001>031-035>038-043-044-053-054-261200-
...NORTHERN AND WESTERN MISSOURI...

CITY           SKY/WX    TMP DP  RH WIND       PRES   REMARKS
KANSAS CTY INT CLOUDY    45  33  63 S13       29.84S
KANSAS C DTWN  CLOUDY    49  32  52 S10       29.86R
LEE`S SUMMIT   MOCLDY    44  32  62 S9        29.87R
ST JOSEPH      MOCLDY    38  30  73 S3        29.85R
CHILLICOTHE      N/A     39  31  72 SE3       29.89S
KIRKSVILLE     MOCLDY    34  32  92 SE8       29.90S WCI  27

$$
MOZ066>068-077>081-088>096-101>105-261200-
...SOUTHWEST MISSOURI...

CITY           SKY/WX    TMP DP  RH WIND       PRES   REMARKS
SPRINGFIELD    PTCLDY    42  33  70 S14       29.96R
JOPLIN         PTCLDY    47  37  68 S16       29.93R

$$
MOZ032>034-039>042-045>050-055>058-069>072-261200-
...CENTRAL MISSOURI...

CITY           SKY/WX    TMP DP  RH WIND       PRES   REMARKS
COLUMBIA       PTCLDY    40  33  76 SE12      29.95S
JEFFERSON CITY CLEAR     42  34  73 E7        29.98S
ROLLA          FAIR      40  34  79 S12       29.99R
SEDALIA        PTCLDY    47  33  58 S15       29.92R
WHITEMAN AFB   MOCLDY    44  34  67 S14G22    29.89S
WARRENSBURG    PTCLDY    41  32  70 S7        29.89S
OSAGE BEACH    CLEAR     43  32  65 S9        29.97R

$$
MOZ051-052-059>065-261200-
...EAST CENTRAL MISSOURI...

CITY           SKY/WX    TMP DP  RH WIND       PRES   REMARKS
ST LOUIS INTL  PTCLDY    43  35  73 SE8       30.05S
SPIRIT OF STL  CLEAR     44  35  70 S5        30.03S
ST CHARLES     CLEAR     34  32  92 E8        30.04S WCI  27

$$
MOZ072>076-082>087-097>100-106>115-261200-
...SOUTH CENTRAL AND SOUTHEAST MISSOURI...

CITY           SKY/WX    TMP DP  RH WIND       PRES   REMARKS
CAPE GIRARDEAU PTCLDY    39  35  86 SE5       30.16R
POPLAR BLUFF   CLEAR     32  30  92 E3        30.13R
WEST PLAINS    PTCLDY    37  33  85 SE6       30.07R

$$



USA.gov is the U.S. government's official web portal to all federal, state and local government web resources and services.